Year,Month,Day,Hour,Minute,Value (Times are PST for temperature in C)
2012,03,17,00,00,4.40
2012,03,17,00,01,4.30
2012,03,17,00,02,4.30
2012,03,17,00,03,4.30
2012,03,17,00,04,4.30
2012,03,17,00,05,4.30
2012,03,17,00,06,4.30
2012,03,17,00,07,4.30
2012,03,17,00,08,4.30
2012,03,17,00,09,4.30
2012,03,17,00,10,4.30
2012,03,17,00,11,4.30
2012,03,17,00,12,4.30
2012,03,17,00,13,4.30
2012,03,17,00,14,4.30
2012,03,17,00,15,4.30
2012,03,17,00,16,4.40
2012,03,17,00,17,4.30
2012,03,17,00,18,4.30
2012,03,17,00,19,4.30
2012,03,17,00,20,4.30
2012,03,17,00,21,4.30
2012,03,17,00,22,4.30
2012,03,17,00,23,4.30
2012,03,17,00,24,4.30
2012,03,17,00,25,4.30
2012,03,17,00,26,4.30
2012,03,17,00,27,4.30
2012,03,17,00,28,4.30
2012,03,17,00,29,4.30
2012,03,17,00,30,4.30
2012,03,17,00,31,4.30
2012,03,17,00,32,4.30
2012,03,17,00,33,4.30
2012,03,17,00,34,4.30
2012,03,17,00,35,4.30
2012,03,17,00,36,4.30
2012,03,17,00,37,4.30
2012,03,17,00,38,4.30
2012,03,17,00,39,4.30
2012,03,17,00,40,4.30
2012,03,17,00,41,4.30
2012,03,17,00,42,4.30
2012,03,17,00,43,4.30
2012,03,17,00,44,4.30
2012,03,17,00,45,4.30
2012,03,17,00,46,4.30
2012,03,17,00,47,4.30
2012,03,17,00,48,4.30
2012,03,17,00,49,4.30
2012,03,17,00,50,4.30
2012,03,17,00,51,4.30
2012,03,17,00,52,4.30
2012,03,17,00,53,4.30
2012,03,17,00,54,4.30
2012,03,17,00,55,4.30
2012,03,17,00,56,4.30
2012,03,17,00,57,4.30
2012,03,17,00,58,4.30
2012,03,17,00,59,4.30
2012,03,17,01,00,4.30
2012,03,17,01,01,4.30
2012,03,17,01,02,4.30
2012,03,17,01,03,4.30
2012,03,17,01,04,4.30
2012,03,17,01,05,4.30
2012,03,17,01,06,4.30
2012,03,17,01,07,4.30
2012,03,17,01,08,4.30
2012,03,17,01,09,4.30
2012,03,17,01,10,4.30
2012,03,17,01,11,4.30
2012,03,17,01,12,4.30
2012,03,17,01,13,4.30
2012,03,17,01,14,4.30
2012,03,17,01,15,4.30
2012,03,17,01,16,4.30
2012,03,17,01,17,4.30
2012,03,17,01,18,4.40
2012,03,17,01,19,4.40
2012,03,17,01,20,4.40
2012,03,17,01,21,4.40
2012,03,17,01,22,4.40
2012,03,17,01,23,4.40
2012,03,17,01,24,4.40
2012,03,17,01,25,4.40
2012,03,17,01,26,4.40
2012,03,17,01,27,4.40
2012,03,17,01,28,4.40
2012,03,17,01,29,4.40
2012,03,17,01,30,4.40
2012,03,17,01,31,4.40
2012,03,17,01,32,4.40
2012,03,17,01,33,4.40
2012,03,17,01,34,4.40
2012,03,17,01,35,4.40
2012,03,17,01,36,4.40
2012,03,17,01,37,4.40
2012,03,17,01,38,4.40
2012,03,17,01,39,4.40
2012,03,17,01,40,4.40
2012,03,17,01,41,4.40
2012,03,17,01,42,4.40
2012,03,17,01,43,4.40
2012,03,17,01,44,4.40
2012,03,17,01,45,4.40
2012,03,17,01,46,4.40
2012,03,17,01,47,4.40
2012,03,17,01,48,4.40
2012,03,17,01,49,4.40
2012,03,17,01,50,4.40
2012,03,17,01,51,4.40
2012,03,17,01,52,4.40
2012,03,17,01,53,4.40
2012,03,17,01,54,4.40
2012,03,17,01,55,4.40
2012,03,17,01,56,4.40
2012,03,17,01,57,4.40
2012,03,17,01,58,4.40
2012,03,17,01,59,4.40
2012,03,17,02,00,4.40
2012,03,17,02,01,4.40
2012,03,17,02,02,4.40
2012,03,17,02,03,4.40
2012,03,17,02,04,4.40
2012,03,17,02,05,4.40
2012,03,17,02,06,4.40
2012,03,17,02,07,4.40
2012,03,17,02,08,4.40
2012,03,17,02,09,4.40
2012,03,17,02,10,4.50
2012,03,17,02,11,4.50
2012,03,17,02,12,4.50
2012,03,17,02,13,4.50
2012,03,17,02,14,4.50
2012,03,17,02,15,4.60
2012,03,17,02,16,4.60
2012,03,17,02,17,4.60
2012,03,17,02,18,4.60
2012,03,17,02,19,4.70
2012,03,17,02,20,4.70
2012,03,17,02,21,4.70
2012,03,17,02,22,4.70
2012,03,17,02,23,4.70
2012,03,17,02,24,4.70
2012,03,17,02,25,4.70
2012,03,17,02,26,4.70
2012,03,17,02,27,4.70
2012,03,17,02,28,4.70
2012,03,17,02,29,4.70
2012,03,17,02,30,4.70
2012,03,17,02,31,4.70
2012,03,17,02,32,4.70
2012,03,17,02,33,4.70
2012,03,17,02,34,4.70
2012,03,17,02,35,4.70
2012,03,17,02,36,4.70
2012,03,17,02,37,4.70
2012,03,17,02,38,4.70
2012,03,17,02,39,4.80
2012,03,17,02,40,4.80
2012,03,17,02,41,4.80
2012,03,17,02,42,4.80
2012,03,17,02,43,4.70
2012,03,17,02,44,4.70
2012,03,17,02,45,4.70
2012,03,17,02,46,4.70
2012,03,17,02,47,4.70
2012,03,17,02,48,4.70
2012,03,17,02,49,4.70
2012,03,17,02,50,4.70
2012,03,17,02,51,4.70
2012,03,17,02,52,4.70
2012,03,17,02,53,4.70
2012,03,17,02,54,4.70
2012,03,17,02,55,4.70
2012,03,17,02,56,4.60
2012,03,17,02,57,4.60
2012,03,17,02,58,4.60
2012,03,17,02,59,4.60
2012,03,17,03,00,4.60
2012,03,17,03,01,4.60
2012,03,17,03,02,4.60
2012,03,17,03,03,4.60
2012,03,17,03,04,4.60
2012,03,17,03,05,4.60
2012,03,17,03,06,4.60
2012,03,17,03,07,4.60
2012,03,17,03,08,4.60
2012,03,17,03,09,4.50
2012,03,17,03,10,4.50
2012,03,17,03,11,4.50
2012,03,17,03,12,4.50
2012,03,17,03,13,4.50
2012,03,17,03,14,4.50
2012,03,17,03,15,4.50
2012,03,17,03,16,4.50
2012,03,17,03,17,4.50
2012,03,17,03,18,4.50
2012,03,17,03,19,4.50
2012,03,17,03,20,4.50
2012,03,17,03,21,4.50
2012,03,17,03,22,4.50
2012,03,17,03,23,4.50
2012,03,17,03,24,4.40
2012,03,17,03,25,4.50
2012,03,17,03,26,4.40
2012,03,17,03,27,4.40
2012,03,17,03,28,4.40
2012,03,17,03,29,4.40
2012,03,17,03,30,4.40
2012,03,17,03,31,4.40
2012,03,17,03,32,4.40
2012,03,17,03,33,4.40
2012,03,17,03,34,4.40
2012,03,17,03,35,4.40
2012,03,17,03,36,4.40
2012,03,17,03,37,4.40
2012,03,17,03,38,4.40
2012,03,17,03,39,4.40
2012,03,17,03,40,4.40
2012,03,17,03,41,4.40
2012,03,17,03,42,4.40
2012,03,17,03,43,4.40
2012,03,17,03,44,4.40
2012,03,17,03,45,4.40
2012,03,17,03,46,4.40
2012,03,17,03,47,4.40
2012,03,17,03,48,4.40
2012,03,17,03,49,4.40
2012,03,17,03,50,4.40
2012,03,17,03,51,4.40
2012,03,17,03,52,4.40
2012,03,17,03,53,4.40
2012,03,17,03,54,4.30
2012,03,17,03,55,4.30
2012,03,17,03,56,4.30
2012,03,17,03,57,4.30
2012,03,17,03,58,4.30
2012,03,17,03,59,4.30
2012,03,17,04,00,4.30
2012,03,17,04,01,4.20
2012,03,17,04,02,4.20
2012,03,17,04,03,4.20
2012,03,17,04,04,4.20
2012,03,17,04,05,4.20
2012,03,17,04,06,4.20
2012,03,17,04,07,4.20
2012,03,17,04,08,4.20
2012,03,17,04,09,4.20
2012,03,17,04,10,4.20
2012,03,17,04,11,4.20
2012,03,17,04,12,4.20
2012,03,17,04,13,4.20
2012,03,17,04,14,4.20
2012,03,17,04,15,4.20
2012,03,17,04,16,4.20
2012,03,17,04,17,4.20
2012,03,17,04,18,4.20
2012,03,17,04,19,4.20
2012,03,17,04,20,4.20
2012,03,17,04,21,4.20
2012,03,17,04,22,4.20
2012,03,17,04,23,4.20
2012,03,17,04,24,4.20
2012,03,17,04,25,4.30
2012,03,17,04,26,4.30
2012,03,17,04,27,4.30
2012,03,17,04,28,4.30
2012,03,17,04,29,4.30
2012,03,17,04,30,4.30
2012,03,17,04,31,4.30
2012,03,17,04,32,4.30
2012,03,17,04,33,4.30
2012,03,17,04,34,4.40
2012,03,17,04,35,4.40
2012,03,17,04,36,4.40
2012,03,17,04,37,4.40
2012,03,17,04,38,4.40
2012,03,17,04,39,4.40
2012,03,17,04,40,4.40
2012,03,17,04,41,4.40
2012,03,17,04,42,4.40
2012,03,17,04,43,4.40
2012,03,17,04,44,4.40
2012,03,17,04,45,4.40
2012,03,17,04,46,4.40
2012,03,17,04,47,4.40
2012,03,17,04,48,4.40
2012,03,17,04,49,4.40
2012,03,17,04,50,4.40
2012,03,17,04,51,4.40
2012,03,17,04,52,4.30
2012,03,17,04,53,4.30
2012,03,17,04,54,4.30
2012,03,17,04,55,4.30
2012,03,17,04,56,4.30
2012,03,17,04,57,4.30
2012,03,17,04,58,4.30
2012,03,17,04,59,4.30
2012,03,17,05,00,4.20
2012,03,17,05,01,4.20
2012,03,17,05,02,4.20
2012,03,17,05,03,4.20
2012,03,17,05,04,4.20
2012,03,17,05,05,4.20
2012,03,17,05,06,4.20
2012,03,17,05,07,4.20
2012,03,17,05,08,4.20
2012,03,17,05,09,4.20
2012,03,17,05,10,4.20
2012,03,17,05,11,4.20
2012,03,17,05,12,4.20
2012,03,17,05,13,4.20
2012,03,17,05,14,4.10
2012,03,17,05,15,4.10
2012,03,17,05,16,4.10
2012,03,17,05,17,4.10
2012,03,17,05,18,4.10
2012,03,17,05,19,4.10
2012,03,17,05,20,4.10
2012,03,17,05,21,4.10
2012,03,17,05,22,4.10
2012,03,17,05,23,4.10
2012,03,17,05,24,4.10
2012,03,17,05,25,4.10
2012,03,17,05,26,4.00
2012,03,17,05,27,4.00
2012,03,17,05,28,4.00
2012,03,17,05,29,4.00
2012,03,17,05,30,4.00
2012,03,17,05,31,3.90
2012,03,17,05,32,3.90
2012,03,17,05,33,3.90
2012,03,17,05,34,3.90
2012,03,17,05,35,3.90
2012,03,17,05,36,3.90
2012,03,17,05,37,3.90
2012,03,17,05,38,3.90
2012,03,17,05,39,3.80
2012,03,17,05,40,3.80
2012,03,17,05,41,3.80
2012,03,17,05,42,3.80
2012,03,17,05,43,3.80
2012,03,17,05,44,3.80
2012,03,17,05,45,3.80
2012,03,17,05,46,3.70
2012,03,17,05,47,3.70
2012,03,17,05,48,3.70
2012,03,17,05,49,3.70
2012,03,17,05,50,3.70
2012,03,17,05,51,3.70
2012,03,17,05,52,3.70
2012,03,17,05,53,3.70
2012,03,17,05,54,3.60
2012,03,17,05,55,3.60
2012,03,17,05,56,3.60
2012,03,17,05,57,3.60
2012,03,17,05,58,3.60
2012,03,17,05,59,3.60
2012,03,17,06,00,3.60
2012,03,17,06,01,3.60
2012,03,17,06,02,3.60
2012,03,17,06,03,3.60
2012,03,17,06,04,3.60
2012,03,17,06,05,3.50
2012,03,17,06,06,3.50
2012,03,17,06,07,3.50
2012,03,17,06,08,3.50
2012,03,17,06,09,3.50
2012,03,17,06,10,3.50
2012,03,17,06,11,3.50
2012,03,17,06,12,3.50
2012,03,17,06,13,3.50
2012,03,17,06,14,3.50
2012,03,17,06,15,3.60
2012,03,17,06,16,3.60
2012,03,17,06,17,3.60
2012,03,17,06,18,3.60
2012,03,17,06,19,3.60
2012,03,17,06,20,3.60
2012,03,17,06,21,3.50
2012,03,17,06,22,3.50
2012,03,17,06,23,3.50
2012,03,17,06,24,3.50
2012,03,17,06,25,3.50
2012,03,17,06,26,3.50
2012,03,17,06,27,3.50
2012,03,17,06,28,3.50
2012,03,17,06,29,3.50
2012,03,17,06,30,3.50
2012,03,17,06,31,3.50
2012,03,17,06,32,3.50
2012,03,17,06,33,3.40
2012,03,17,06,34,3.40
2012,03,17,06,35,3.40
2012,03,17,06,36,3.40
2012,03,17,06,37,3.40
2012,03,17,06,38,3.40
2012,03,17,06,39,3.40
2012,03,17,06,40,3.40
2012,03,17,06,41,3.40
2012,03,17,06,42,3.40
2012,03,17,06,43,3.40
2012,03,17,06,44,3.40
2012,03,17,06,45,3.40
2012,03,17,06,46,3.40
2012,03,17,06,47,3.40
2012,03,17,06,48,3.30
2012,03,17,06,49,3.30
2012,03,17,06,50,3.30
2012,03,17,06,51,3.30
2012,03,17,06,52,3.30
2012,03,17,06,53,3.30
2012,03,17,06,54,3.30
2012,03,17,06,55,3.30
2012,03,17,06,56,3.30
2012,03,17,06,57,3.30
2012,03,17,06,58,3.30
2012,03,17,06,59,3.30
2012,03,17,07,00,3.30
2012,03,17,07,01,3.30
2012,03,17,07,02,3.30
2012,03,17,07,03,3.30
2012,03,17,07,04,3.30
2012,03,17,07,05,3.30
2012,03,17,07,06,3.30
2012,03,17,07,07,3.30
2012,03,17,07,08,3.30
2012,03,17,07,09,3.30
2012,03,17,07,10,3.30
2012,03,17,07,11,3.30
2012,03,17,07,12,3.30
2012,03,17,07,13,3.30
2012,03,17,07,14,3.30
2012,03,17,07,15,3.30
2012,03,17,07,16,3.30
2012,03,17,07,17,3.20
2012,03,17,07,18,3.20
2012,03,17,07,19,3.20
2012,03,17,07,20,3.20
2012,03,17,07,21,3.20
2012,03,17,07,22,3.20
2012,03,17,07,23,3.20
2012,03,17,07,24,3.20
2012,03,17,07,25,3.20
2012,03,17,07,26,3.30
2012,03,17,07,27,3.30
2012,03,17,07,28,3.30
2012,03,17,07,29,3.30
2012,03,17,07,30,3.30
2012,03,17,07,31,3.30
2012,03,17,07,32,3.30
2012,03,17,07,33,3.30
2012,03,17,07,34,3.30
2012,03,17,07,35,3.30
2012,03,17,07,36,3.30
2012,03,17,07,37,3.30
2012,03,17,07,38,3.30
2012,03,17,07,39,3.30
2012,03,17,07,40,3.30
2012,03,17,07,41,3.30
2012,03,17,07,42,3.30
2012,03,17,07,43,3.30
2012,03,17,07,44,3.30
2012,03,17,07,45,3.30
2012,03,17,07,46,3.30
2012,03,17,07,47,3.30
2012,03,17,07,48,3.30
2012,03,17,07,49,3.30
2012,03,17,07,50,3.30
2012,03,17,07,51,3.30
2012,03,17,07,52,3.30
2012,03,17,07,53,3.40
2012,03,17,07,54,3.40
2012,03,17,07,55,3.40
2012,03,17,07,56,3.40
2012,03,17,07,57,3.40
2012,03,17,07,58,3.40
2012,03,17,07,59,3.50
2012,03,17,08,00,3.50
2012,03,17,08,01,3.50
2012,03,17,08,02,3.50
2012,03,17,08,03,3.50
2012,03,17,08,04,3.50
2012,03,17,08,05,3.50
2012,03,17,08,06,3.60
2012,03,17,08,07,3.60
2012,03,17,08,08,3.60
2012,03,17,08,09,3.60
2012,03,17,08,10,3.60
2012,03,17,08,11,3.60
2012,03,17,08,12,3.60
2012,03,17,08,13,3.60
2012,03,17,08,14,3.60
2012,03,17,08,15,3.60
2012,03,17,08,16,3.60
2012,03,17,08,17,3.60
2012,03,17,08,18,3.60
2012,03,17,08,19,3.60
2012,03,17,08,20,3.70
2012,03,17,08,21,3.70
2012,03,17,08,22,3.70
2012,03,17,08,23,3.70
2012,03,17,08,24,3.70
2012,03,17,08,25,3.70
2012,03,17,08,26,3.70
2012,03,17,08,27,3.70
2012,03,17,08,28,3.70
2012,03,17,08,29,3.70
2012,03,17,08,30,3.80
2012,03,17,08,31,3.80
2012,03,17,08,32,3.80
2012,03,17,08,33,3.80
2012,03,17,08,34,3.80
2012,03,17,08,35,3.80
2012,03,17,08,36,3.90
2012,03,17,08,37,3.90
2012,03,17,08,38,3.90
2012,03,17,08,39,3.90
2012,03,17,08,40,3.90
2012,03,17,08,41,4.00
2012,03,17,08,42,4.00
2012,03,17,08,43,4.00
2012,03,17,08,44,4.10
2012,03,17,08,45,4.10
2012,03,17,08,46,4.10
2012,03,17,08,47,4.10
2012,03,17,08,48,4.20
2012,03,17,08,49,4.20
2012,03,17,08,50,4.20
2012,03,17,08,51,4.20
2012,03,17,08,52,4.20
2012,03,17,08,53,4.30
2012,03,17,08,54,4.30
2012,03,17,08,55,4.30
2012,03,17,08,56,4.30
2012,03,17,08,57,4.30
2012,03,17,08,58,4.30
2012,03,17,08,59,4.40
2012,03,17,09,00,4.40
2012,03,17,09,01,4.40
2012,03,17,09,02,4.40
2012,03,17,09,03,4.40
2012,03,17,09,04,4.40
2012,03,17,09,05,4.50
2012,03,17,09,06,4.50
2012,03,17,09,07,4.50
2012,03,17,09,08,4.50
2012,03,17,09,09,4.60
2012,03,17,09,10,4.60
2012,03,17,09,11,4.60
2012,03,17,09,12,4.60
2012,03,17,09,13,4.60
2012,03,17,09,14,4.60
2012,03,17,09,15,4.60
2012,03,17,09,16,4.70
2012,03,17,09,17,4.70
2012,03,17,09,18,4.70
2012,03,17,09,19,4.70
2012,03,17,09,20,4.70
2012,03,17,09,21,4.70
2012,03,17,09,22,4.70
2012,03,17,09,23,4.70
2012,03,17,09,24,4.70
2012,03,17,09,25,4.80
2012,03,17,09,26,4.80
2012,03,17,09,27,4.80
2012,03,17,09,28,4.80
2012,03,17,09,29,4.80
2012,03,17,09,30,4.80
2012,03,17,09,31,4.80
2012,03,17,09,32,4.80
2012,03,17,09,33,4.90
2012,03,17,09,34,4.90
2012,03,17,09,35,4.90
2012,03,17,09,36,4.90
2012,03,17,09,37,5.00
2012,03,17,09,38,5.00
2012,03,17,09,39,5.10
2012,03,17,09,40,5.10
2012,03,17,09,41,5.20
2012,03,17,09,42,5.20
2012,03,17,09,43,5.20
2012,03,17,09,44,5.30
2012,03,17,09,45,5.30
2012,03,17,09,46,5.30
2012,03,17,09,47,5.30
2012,03,17,09,48,5.30
2012,03,17,09,49,5.30
2012,03,17,09,50,5.30
2012,03,17,09,51,5.30
2012,03,17,09,52,5.30
2012,03,17,09,53,5.40
2012,03,17,09,54,5.40
2012,03,17,09,55,5.40
2012,03,17,09,56,5.40
2012,03,17,09,57,5.40
2012,03,17,09,58,5.30
2012,03,17,09,59,5.30
2012,03,17,10,00,5.30
2012,03,17,10,01,5.30
2012,03,17,10,02,5.30
2012,03,17,10,03,5.40
2012,03,17,10,04,5.40
2012,03,17,10,05,5.40
2012,03,17,10,06,5.50
2012,03,17,10,07,5.50
2012,03,17,10,08,5.50
2012,03,17,10,09,5.60
2012,03,17,10,10,5.60
2012,03,17,10,11,5.60
2012,03,17,10,12,5.60
2012,03,17,10,13,5.70
2012,03,17,10,14,5.70
2012,03,17,10,15,5.70
2012,03,17,10,16,5.80
2012,03,17,10,17,5.80
2012,03,17,10,18,5.80
2012,03,17,10,19,5.80
2012,03,17,10,20,5.80
2012,03,17,10,21,5.90
2012,03,17,10,22,5.90
2012,03,17,10,23,6.00
2012,03,17,10,24,6.00
2012,03,17,10,25,6.10
2012,03,17,10,26,6.20
2012,03,17,10,27,6.20
2012,03,17,10,28,6.30
2012,03,17,10,29,6.30
2012,03,17,10,30,6.30
2012,03,17,10,31,6.40
2012,03,17,10,32,6.40
2012,03,17,10,33,6.40
2012,03,17,10,34,6.40
2012,03,17,10,35,6.40
2012,03,17,10,36,6.40
2012,03,17,10,37,6.30
2012,03,17,10,38,6.30
2012,03,17,10,39,6.30
2012,03,17,10,40,6.30
2012,03,17,10,41,6.30
2012,03,17,10,42,6.30
2012,03,17,10,43,6.30
2012,03,17,10,44,6.30
2012,03,17,10,45,6.30
2012,03,17,10,46,6.30
2012,03,17,10,47,6.30
2012,03,17,10,48,6.30
2012,03,17,10,49,6.40
2012,03,17,10,50,6.40
2012,03,17,10,51,6.40
2012,03,17,10,52,6.40
2012,03,17,10,53,6.50
2012,03,17,10,54,6.60
2012,03,17,10,55,6.60
2012,03,17,10,56,6.70
2012,03,17,10,57,6.70
2012,03,17,10,58,6.80
2012,03,17,10,59,6.90
2012,03,17,11,00,6.90
2012,03,17,11,01,7.00
2012,03,17,11,02,7.10
2012,03,17,11,03,7.10
2012,03,17,11,04,7.20
2012,03,17,11,05,7.20
2012,03,17,11,06,7.10
2012,03,17,11,07,7.00
2012,03,17,11,08,7.00
2012,03,17,11,09,6.90
2012,03,17,11,10,6.90
2012,03,17,11,11,6.90
2012,03,17,11,12,6.90
2012,03,17,11,13,6.90
2012,03,17,11,14,6.90
2012,03,17,11,15,7.00
2012,03,17,11,16,7.00
2012,03,17,11,17,7.00
2012,03,17,11,18,7.00
2012,03,17,11,19,7.10
2012,03,17,11,20,7.10
2012,03,17,11,21,7.10
2012,03,17,11,22,7.20
2012,03,17,11,23,7.20
2012,03,17,11,24,7.30
2012,03,17,11,25,7.30
2012,03,17,11,26,7.30
2012,03,17,11,27,7.30
2012,03,17,11,28,7.30
2012,03,17,11,29,7.20
2012,03,17,11,30,7.20
2012,03,17,11,31,7.10
2012,03,17,11,32,7.20
2012,03,17,11,33,7.10
2012,03,17,11,34,7.10
2012,03,17,11,35,7.10
2012,03,17,11,36,7.10
2012,03,17,11,37,7.10
2012,03,17,11,38,7.20
2012,03,17,11,39,7.20
2012,03,17,11,40,7.20
2012,03,17,11,41,7.20
2012,03,17,11,42,7.30
2012,03,17,11,43,7.40
2012,03,17,11,44,7.40
2012,03,17,11,45,7.40
2012,03,17,11,46,7.40
2012,03,17,11,47,7.40
2012,03,17,11,48,7.30
2012,03,17,11,49,7.30
2012,03,17,11,50,7.40
2012,03,17,11,51,7.40
2012,03,17,11,52,7.30
2012,03,17,11,53,7.30
2012,03,17,11,54,7.40
2012,03,17,11,55,7.40
2012,03,17,11,56,7.40
2012,03,17,11,57,7.40
2012,03,17,11,58,7.40
2012,03,17,11,59,7.50
2012,03,17,12,00,7.50
2012,03,17,12,01,7.60
2012,03,17,12,02,7.60
2012,03,17,12,03,7.60
2012,03,17,12,04,7.60
2012,03,17,12,05,7.70
2012,03,17,12,06,7.70
2012,03,17,12,07,7.70
2012,03,17,12,08,7.70
2012,03,17,12,09,7.70
2012,03,17,12,10,7.70
2012,03,17,12,11,7.80
2012,03,17,12,12,7.80
2012,03,17,12,13,7.80
2012,03,17,12,14,7.90
2012,03,17,12,15,8.00
2012,03,17,12,16,8.10
2012,03,17,12,17,8.10
2012,03,17,12,18,8.00
2012,03,17,12,19,8.00
2012,03,17,12,20,8.00
2012,03,17,12,21,8.00
2012,03,17,12,22,8.00
2012,03,17,12,23,8.00
2012,03,17,12,24,8.00
2012,03,17,12,25,8.00
2012,03,17,12,26,8.00
2012,03,17,12,27,8.00
2012,03,17,12,28,7.90
2012,03,17,12,29,7.90
2012,03,17,12,30,7.80
2012,03,17,12,31,7.80
2012,03,17,12,32,7.90
2012,03,17,12,33,7.90
2012,03,17,12,34,8.00
2012,03,17,12,35,8.10
2012,03,17,12,36,8.20
2012,03,17,12,37,8.30
2012,03,17,12,38,8.20
2012,03,17,12,39,8.10
2012,03,17,12,40,8.10
2012,03,17,12,41,8.10
2012,03,17,12,42,8.10
2012,03,17,12,43,8.10
2012,03,17,12,44,8.20
2012,03,17,12,45,8.20
2012,03,17,12,46,8.30
2012,03,17,12,47,8.30
2012,03,17,12,48,8.30
2012,03,17,12,49,8.30
2012,03,17,12,50,8.30
2012,03,17,12,51,8.30
2012,03,17,12,52,8.30
2012,03,17,12,53,8.30
2012,03,17,12,54,8.40
2012,03,17,12,55,8.40
2012,03,17,12,56,8.50
2012,03,17,12,57,8.50
2012,03,17,12,58,8.60
2012,03,17,12,59,8.70
2012,03,17,13,00,8.80
2012,03,17,13,01,8.80
2012,03,17,13,02,8.80
2012,03,17,13,03,8.80
2012,03,17,13,04,8.90
2012,03,17,13,05,8.80
2012,03,17,13,06,8.80
2012,03,17,13,07,8.80
2012,03,17,13,08,8.80
2012,03,17,13,09,8.80
2012,03,17,13,10,8.80
2012,03,17,13,11,8.80
2012,03,17,13,12,8.80
2012,03,17,13,13,8.80
2012,03,17,13,14,8.80
2012,03,17,13,15,8.80
2012,03,17,13,16,8.80
2012,03,17,13,17,8.80
2012,03,17,13,18,8.90
2012,03,17,13,19,8.90
2012,03,17,13,20,8.90
2012,03,17,13,21,9.00
2012,03,17,13,22,9.00
2012,03,17,13,23,9.00
2012,03,17,13,24,9.10
2012,03,17,13,25,9.10
2012,03,17,13,26,9.10
2012,03,17,13,27,9.20
2012,03,17,13,28,9.20
2012,03,17,13,29,9.30
2012,03,17,13,30,9.20
2012,03,17,13,31,9.20
2012,03,17,13,32,9.20
2012,03,17,13,33,9.30
2012,03,17,13,34,9.30
2012,03,17,13,35,9.40
2012,03,17,13,36,9.50
2012,03,17,13,37,9.40
2012,03,17,13,38,9.40
2012,03,17,13,39,9.30
2012,03,17,13,40,9.30
2012,03,17,13,41,9.30
2012,03,17,13,42,9.40
2012,03,17,13,43,9.50
2012,03,17,13,44,9.50
2012,03,17,13,45,9.50
2012,03,17,13,46,9.50
2012,03,17,13,47,9.60
2012,03,17,13,48,9.60
2012,03,17,13,49,9.60
2012,03,17,13,50,9.70
2012,03,17,13,51,9.80
2012,03,17,13,52,9.80
2012,03,17,13,53,9.90
2012,03,17,13,54,9.90
2012,03,17,13,55,10.00
2012,03,17,13,56,10.00
2012,03,17,13,57,10.00
2012,03,17,13,58,9.90
2012,03,17,13,59,9.80
2012,03,17,14,00,9.70
2012,03,17,14,01,9.60
2012,03,17,14,02,9.60
2012,03,17,14,03,9.70
2012,03,17,14,04,9.70
2012,03,17,14,05,9.80
2012,03,17,14,06,9.80
2012,03,17,14,07,9.80
2012,03,17,14,08,9.80
2012,03,17,14,09,9.70
2012,03,17,14,10,9.50
2012,03,17,14,11,9.40
2012,03,17,14,12,9.30
2012,03,17,14,13,9.40
2012,03,17,14,14,9.50
2012,03,17,14,15,9.60
2012,03,17,14,16,9.70
2012,03,17,14,17,9.90
2012,03,17,14,18,9.80
2012,03,17,14,19,9.70
2012,03,17,14,20,9.60
2012,03,17,14,21,9.50
2012,03,17,14,22,9.50
2012,03,17,14,23,9.50
2012,03,17,14,24,9.50
2012,03,17,14,25,9.60
2012,03,17,14,26,9.60
2012,03,17,14,27,9.60
2012,03,17,14,28,9.60
2012,03,17,14,29,9.70
2012,03,17,14,30,9.80
2012,03,17,14,31,9.90
2012,03,17,14,32,10.00
2012,03,17,14,33,10.00
2012,03,17,14,34,10.10
2012,03,17,14,35,10.00
2012,03,17,14,36,9.90
2012,03,17,14,37,9.80
2012,03,17,14,38,9.80
2012,03,17,14,39,9.80
2012,03,17,14,40,9.80
2012,03,17,14,41,9.80
2012,03,17,14,42,9.80
2012,03,17,14,43,9.80
2012,03,17,14,44,9.90
2012,03,17,14,45,9.90
2012,03,17,14,46,10.00
2012,03,17,14,47,10.10
2012,03,17,14,48,10.20
2012,03,17,14,49,10.20
2012,03,17,14,50,10.20
2012,03,17,14,51,10.20
2012,03,17,14,52,10.30
2012,03,17,14,53,10.20
2012,03,17,14,54,10.10
2012,03,17,14,55,10.10
2012,03,17,14,56,10.10
2012,03,17,14,57,10.10
2012,03,17,14,58,10.10
2012,03,17,14,59,10.10
2012,03,17,15,00,10.10
2012,03,17,15,01,10.10
2012,03,17,15,02,10.10
2012,03,17,15,03,10.10
2012,03,17,15,04,10.10
2012,03,17,15,05,10.20
2012,03,17,15,06,10.20
2012,03,17,15,07,10.20
2012,03,17,15,08,10.30
2012,03,17,15,09,10.30
2012,03,17,15,10,10.30
2012,03,17,15,11,10.30
2012,03,17,15,12,10.30
2012,03,17,15,13,10.30
2012,03,17,15,14,10.40
2012,03,17,15,15,10.40
2012,03,17,15,16,10.40
2012,03,17,15,17,10.40
2012,03,17,15,18,10.40
2012,03,17,15,19,10.30
2012,03,17,15,20,10.20
2012,03,17,15,21,10.10
2012,03,17,15,22,10.00
2012,03,17,15,23,9.90
2012,03,17,15,24,9.80
2012,03,17,15,25,9.70
2012,03,17,15,26,9.60
2012,03,17,15,27,9.60
2012,03,17,15,28,9.70
2012,03,17,15,29,9.80
2012,03,17,15,30,9.80
2012,03,17,15,31,9.80
2012,03,17,15,32,9.90
2012,03,17,15,33,10.00
2012,03,17,15,34,10.10
2012,03,17,15,35,10.10
2012,03,17,15,36,10.10
2012,03,17,15,37,10.10
2012,03,17,15,38,10.00
2012,03,17,15,39,10.00
2012,03,17,15,40,10.00
2012,03,17,15,41,10.00
2012,03,17,15,42,10.00
2012,03,17,15,43,10.00
2012,03,17,15,44,10.00
2012,03,17,15,45,10.00
2012,03,17,15,46,10.20
2012,03,17,15,47,10.30
2012,03,17,15,48,10.30
2012,03,17,15,49,10.40
2012,03,17,15,50,10.40
2012,03,17,15,51,10.50
2012,03,17,15,52,10.50
2012,03,17,15,53,10.50
2012,03,17,15,54,10.40
2012,03,17,15,55,10.40
2012,03,17,15,56,10.30
2012,03,17,15,57,10.30
2012,03,17,15,58,10.30
2012,03,17,15,59,10.30
2012,03,17,16,00,10.20
2012,03,17,16,01,10.20
2012,03,17,16,02,10.20
2012,03,17,16,03,10.20
2012,03,17,16,04,10.10
2012,03,17,16,05,10.10
2012,03,17,16,06,10.10
2012,03,17,16,07,10.10
2012,03,17,16,08,10.10
2012,03,17,16,09,10.10
2012,03,17,16,10,10.00
2012,03,17,16,11,9.90
2012,03,17,16,12,9.90
2012,03,17,16,13,9.80
2012,03,17,16,14,9.70
2012,03,17,16,15,9.60
2012,03,17,16,16,9.40
2012,03,17,16,17,9.30
2012,03,17,16,18,9.20
2012,03,17,16,19,9.20
2012,03,17,16,20,9.10
2012,03,17,16,21,9.10
2012,03,17,16,22,9.10
2012,03,17,16,23,9.10
2012,03,17,16,24,9.20
2012,03,17,16,25,9.10
2012,03,17,16,26,9.10
2012,03,17,16,27,9.10
2012,03,17,16,28,9.20
2012,03,17,16,29,9.20
2012,03,17,16,30,9.30
2012,03,17,16,31,9.40
2012,03,17,16,32,9.40
2012,03,17,16,33,9.40
2012,03,17,16,34,9.40
2012,03,17,16,35,9.40
2012,03,17,16,36,9.40
2012,03,17,16,37,9.40
2012,03,17,16,38,9.30
2012,03,17,16,39,9.30
2012,03,17,16,40,9.30
2012,03,17,16,41,9.20
2012,03,17,16,42,9.10
2012,03,17,16,43,9.00
2012,03,17,16,44,9.00
2012,03,17,16,45,8.90
2012,03,17,16,46,8.80
2012,03,17,16,47,8.80
2012,03,17,16,48,8.70
2012,03,17,16,49,8.70
2012,03,17,16,50,8.70
2012,03,17,16,51,8.60
2012,03,17,16,52,8.60
2012,03,17,16,53,8.60
2012,03,17,16,54,8.60
2012,03,17,16,55,8.60
2012,03,17,16,56,8.50
2012,03,17,16,57,8.50
2012,03,17,16,58,8.50
2012,03,17,16,59,8.50
2012,03,17,17,00,8.60
2012,03,17,17,01,8.60
2012,03,17,17,02,8.60
2012,03,17,17,03,8.60
2012,03,17,17,04,8.70
2012,03,17,17,05,8.70
2012,03,17,17,06,8.70
2012,03,17,17,07,8.70
2012,03,17,17,08,8.70
2012,03,17,17,09,8.70
2012,03,17,17,10,8.70
2012,03,17,17,11,8.70
2012,03,17,17,12,8.70
2012,03,17,17,13,8.70
2012,03,17,17,14,8.70
2012,03,17,17,15,8.70
2012,03,17,17,16,8.70
2012,03,17,17,17,8.80
2012,03,17,17,18,8.80
2012,03,17,17,19,8.80
2012,03,17,17,20,8.80
2012,03,17,17,21,8.80
2012,03,17,17,22,8.80
2012,03,17,17,23,8.80
2012,03,17,17,24,8.80
2012,03,17,17,25,8.80
2012,03,17,17,26,8.80
2012,03,17,17,27,8.90
2012,03,17,17,28,8.90
2012,03,17,17,29,8.90
2012,03,17,17,30,8.80
2012,03,17,17,31,8.80
2012,03,17,17,32,8.80
2012,03,17,17,33,8.80
2012,03,17,17,34,8.80
2012,03,17,17,35,8.80
2012,03,17,17,36,8.80
2012,03,17,17,37,8.70
2012,03,17,17,38,8.70
2012,03,17,17,39,8.70
2012,03,17,17,40,8.70
2012,03,17,17,41,8.60
2012,03,17,17,42,8.60
2012,03,17,17,43,8.60
2012,03,17,17,44,8.60
2012,03,17,17,45,8.60
2012,03,17,17,46,8.60
2012,03,17,17,47,8.50
2012,03,17,17,48,8.50
2012,03,17,17,49,8.50
2012,03,17,17,50,8.50
2012,03,17,17,51,8.50
2012,03,17,17,52,8.50
2012,03,17,17,53,8.40
2012,03,17,17,54,8.40
2012,03,17,17,55,8.40
2012,03,17,17,56,8.40
2012,03,17,17,57,8.30
2012,03,17,17,58,8.30
2012,03,17,17,59,8.30
2012,03,17,18,00,8.30
2012,03,17,18,01,8.30
2012,03,17,18,02,8.30
2012,03,17,18,03,8.30